| time (UTC) | temp F | wind direction | speed MPH | gust MPH | rain 1hr in | rain 24hr in | rain mn in | humidity % | barometer mb |
| 20260507060010 | 44 | 180 | 0.0 | 4.0 | 0.04 | 0.05 | 0.04 | 94 | 1008.4 |
| 20260507055000 | 45 | 135 | 0.0 | 2.0 | 0.02 | 0.04 | 0.02 | 93 | 1007.9 |
| 20260507053954 | 45 | 135 | 2.0 | 2.0 | 0.01 | 0.02 | 0.01 | 92 | 1008.1 |
| 20260507052949 | 45 | 157 | 0.0 | 2.0 | 0.00 | 0.01 | 0.00 | 92 | 1008.1 |
| 20260507051942 | 45 | 135 | 0.0 | 4.0 | 0.00 | 0.01 | 0.00 | 91 | 1007.6 |
| 20260507050938 | 45 | 180 | 1.0 | 4.0 | 0.00 | 0.01 | 0.00 | 90 | 1007.4 |
| 20260507045929 | 46 | 112 | 2.0 | 4.0 | 0.00 | 0.01 | 0.00 | 90 | 1007.5 |
| 20260507044923 | 46 | 180 | 2.0 | 4.0 | 0.00 | 0.01 | 0.00 | 89 | 1007.4 |
| 20260507043918 | 46 | 180 | 2.0 | 4.0 | 0.00 | 0.01 | 0.00 | 90 | 1007.4 |
| 20260507042911 | 46 | 135 | 0.0 | 4.0 | 0.00 | 0.01 | 0.00 | 91 | 1007.3 |
| 20260507041908 | 45 | 157 | 1.0 | 4.0 | 0.00 | 0.01 | 0.00 | 91 | 1007.6 |
| 20260507040858 | 44 | 157 | 1.0 | 4.0 | 0.00 | 0.01 | 0.00 | 92 | 1007.5 |
| 20260507035853 | 44 | 157 | 0.0 | 2.0 | 0.00 | 0.01 | 0.00 | 92 | 1007.6 |
| 20260507034845 | 44 | 112 | 0.0 | 2.0 | 0.00 | 0.01 | 0.00 | 92 | 1007.2 |
| 20260507033840 | 44 | 135 | 0.0 | 4.0 | 0.00 | 0.01 | 0.00 | 92 | 1007.4 |
| 20260507032836 | 44 | 112 | 0.0 | 4.0 | 0.00 | 0.01 | 0.00 | 93 | 1007.0 |
| 20260507031828 | 43 | 135 | 1.0 | 4.0 | 0.00 | 0.01 | 0.00 | 93 | 1007.3 |
| 20260507030822 | 43 | 135 | 0.0 | 2.0 | 0.00 | 0.01 | 0.00 | 93 | 1007.1 |
| 20260507025815 | 43 | 135 | 0.0 | 4.0 | 0.00 | 0.01 | 0.00 | 93 | 1006.9 |
| 20260507024809 | 42 | 112 | 0.0 | 0.0 | 0.00 | 0.01 | 0.00 | 94 | 1007.0 |
| 20260507023806 | 42 | 90 | 0.0 | 0.0 | 0.00 | 0.01 | 0.00 | 94 | 1007.2 |
| 20260507022756 | 42 | 90 | 0.0 | 0.0 | 0.00 | 0.01 | 0.00 | 94 | 1007.0 |
| 20260507021751 | 42 | 90 | 0.0 | 0.0 | 0.00 | 0.01 | 0.00 | 94 | 1007.0 |
| 20260507020744 | 41 | 90 | 0.0 | 0.0 | 0.00 | 0.01 | 0.00 | 93 | 1007.1 |
| 20260507015738 | 41 | 90 | 0.0 | 0.0 | 0.00 | 0.01 | 0.00 | 93 | 1006.9 |
| 20260507014734 | 41 | 90 | 0.0 | 0.0 | 0.00 | 0.01 | 0.00 | 93 | 1007.1 |
| 20260507013727 | 42 | 90 | 0.0 | 2.0 | 0.00 | 0.01 | 0.00 | 92 | 1006.8 |
| 20260507012720 | 42 | 90 | 0.0 | 0.0 | 0.00 | 0.01 | 0.00 | 92 | 1006.8 |
| 20260507011713 | 42 | 90 | 0.0 | 4.0 | 0.00 | 0.01 | 0.00 | 92 | 1006.5 |
| 20260507010707 | 43 | 112 | 1.0 | 4.0 | 0.00 | 0.01 | 0.00 | 92 | 1006.5 |
| 20260507005703 | 42 | 90 | 0.0 | 2.0 | 0.00 | 0.01 | 0.00 | 91 | 1006.7 |
| 20260507004655 | 42 | 135 | 0.0 | 2.0 | 0.00 | 0.01 | 0.00 | 91 | 1006.7 |
| 20260507003648 | 42 | 90 | 0.0 | 0.0 | 0.00 | 0.01 | 0.00 | 91 | 1006.6 |
| 20260507002643 | 42 | 90 | 0.0 | 2.0 | 0.00 | 0.01 | 0.00 | 91 | 1006.8 |
| 20260507001636 | 43 | 112 | 0.0 | 4.0 | 0.00 | 0.01 | 0.00 | 90 | 1006.7 |
| 20260507000634 | 42 | 135 | 0.0 | 2.0 | 0.00 | 0.01 | 0.00 | 90 | 1006.9 |
| 20260506235624 | 42 | 90 | 0.0 | 0.0 | 0.00 | 0.01 | 0.00 | 89 | 1007.0 |
| 20260506234617 | 43 | 90 | 0.0 | 0.0 | 0.00 | 0.01 | 0.00 | 90 | 1007.0 |
| 20260506233611 | 43 | 90 | 0.0 | 4.0 | 0.00 | 0.01 | 0.00 | 89 | 1007.1 |
| 20260506232605 | 44 | 112 | 2.0 | 4.0 | 0.00 | 0.01 | 0.00 | 89 | 1006.8 |
| 20260506231602 | 44 | 157 | 0.0 | 2.0 | 0.00 | 0.02 | 0.00 | 89 | 1006.9 |
| 20260506230552 | 44 | 135 | 0.0 | 2.0 | 0.00 | 0.02 | 0.00 | 88 | 1006.8 |
| 20260506225546 | 44 | 135 | 0.0 | 4.0 | 0.00 | 0.02 | 0.00 | 88 | 1006.8 |
| 20260506224540 | 44 | 112 | 0.0 | 2.0 | 0.00 | 0.02 | 0.00 | 88 | 1006.9 |
| 20260506223535 | 44 | 135 | 0.0 | 0.0 | 0.00 | 0.02 | 0.00 | 87 | 1006.8 |
| 20260506222530 | 45 | 135 | 0.0 | 0.0 | 0.00 | 0.02 | 0.00 | 87 | 1006.8 |
| 20260506221521 | 45 | 135 | 0.0 | 4.0 | 0.00 | 0.02 | 0.00 | 86 | 1007.0 |
| 20260506220515 | 45 | 135 | 0.0 | 2.0 | 0.00 | 0.02 | 0.00 | 86 | 1006.8 |
| 20260506215510 | 46 | 135 | 0.0 | 2.0 | 0.00 | 0.02 | 0.00 | 86 | 1006.6 |
| 20260506214503 | 46 | 135 | 1.0 | 2.0 | 0.00 | 0.02 | 0.00 | 85 | 1006.7 |
| 20260506213500 | 46 | 180 | 1.0 | 4.0 | 0.00 | 0.02 | 0.00 | 85 | 1006.7 |
| 20260506212451 | 46 | 157 | 0.0 | 6.0 | 0.00 | 0.04 | 0.00 | 85 | 1006.7 |
| 20260506211445 | 47 | 202 | 0.0 | 4.0 | 0.00 | 0.04 | 0.00 | 85 | 1006.9 |
| 20260506210440 | 46 | 157 | 0.0 | 2.0 | 0.00 | 0.04 | 0.00 | 84 | 1006.9 |
| 20260506205432 | 47 | 112 | 0.0 | 0.0 | 0.00 | 0.04 | 0.04 | 84 | 1006.5 |
| 20260506204429 | 47 | 112 | 0.0 | 2.0 | 0.00 | 0.04 | 0.04 | 84 | 1006.5 |
| 20260506203419 | 47 | 135 | 1.0 | 4.0 | 0.00 | 0.04 | 0.04 | 83 | 1006.3 |
| 20260506202414 | 47 | 157 | 2.0 | 4.0 | 0.00 | 0.04 | 0.04 | 83 | 1006.1 |
| 20260506201407 | 47 | 90 | 1.0 | 6.0 | 0.00 | 0.04 | 0.04 | 83 | 1006.2 |
| 20260506200401 | 48 | 112 | 2.0 | 7.0 | 0.00 | 0.04 | 0.04 | 82 | 1006.3 |
| 20260506195358 | 48 | 90 | 2.0 | 4.0 | 0.00 | 0.04 | 0.04 | 82 | 1006.5 |
| 20260506194349 | 48 | 135 | 1.0 | 4.0 | 0.00 | 0.04 | 0.04 | 82 | 1006.7 |
| 20260506193344 | 48 | 157 | 2.0 | 4.0 | 0.00 | 0.04 | 0.04 | 82 | 1006.6 |
| 20260506192337 | 48 | 157 | 1.0 | 4.0 | 0.00 | 0.04 | 0.04 | 83 | 1006.6 |
| 20260506191330 | 48 | 157 | 3.0 | 8.0 | 0.01 | 0.04 | 0.04 | 82 | 1006.5 |
| 20260506190327 | 48 | 112 | 1.0 | 7.0 | 0.01 | 0.04 | 0.04 | 83 | 1007.0 |
| 20260506185318 | 48 | 112 | 2.0 | 6.0 | 0.01 | 0.04 | 0.04 | 83 | 1006.7 |
| 20260506184311 | 48 | 157 | 1.0 | 11.0 | 0.01 | 0.04 | 0.04 | 82 | 1006.7 |
| 20260506183305 | 48 | 135 | 0.0 | 7.0 | 0.01 | 0.04 | 0.04 | 83 | 1006.7 |
| 20260506182259 | 48 | 135 | 2.0 | 6.0 | 0.01 | 0.04 | 0.04 | 82 | 1006.5 |
| 20260506181256 | 49 | 135 | 0.0 | 6.0 | 0.00 | 0.02 | 0.02 | 83 | 1006.1 |
| 20260506180249 | 50 | 135 | 2.0 | 6.0 | 0.00 | 0.02 | 0.02 | 80 | 1006.0 |
| 20260506175240 | 51 | 180 | 2.0 | 4.0 | 0.00 | 0.02 | 0.02 | 74 | 1006.3 |
| 20260506174234 | 52 | 202 | 2.0 | 4.0 | 0.00 | 0.02 | 0.02 | 70 | 1006.1 |
| 20260506173229 | 53 | 180 | 1.0 | 4.0 | 0.00 | 0.02 | 0.02 | 66 | 1005.9 |
| 20260506172224 | 54 | 135 | 2.0 | 4.0 | 0.00 | 0.02 | 0.02 | 66 | 1005.5 |
| 20260506171215 | 55 | 180 | 0.0 | 6.0 | 0.00 | 0.02 | 0.02 | 67 | 1005.5 |
| 20260506170209 | 55 | 112 | 2.0 | 6.0 | 0.00 | 0.02 | 0.02 | 65 | 1005.3 |
| 20260506165203 | 57 | 157 | 1.0 | 7.0 | 0.00 | 0.02 | 0.02 | 63 | 1005.4 |
| 20260506164157 | 57 | 135 | 3.0 | 7.0 | 0.00 | 0.02 | 0.02 | 61 | 1005.5 |
| 20260506163155 | 57 | 135 | 0.0 | 4.0 | 0.00 | 0.02 | 0.02 | 61 | 1005.4 |
| 20260506162144 | 57 | 157 | 2.0 | 6.0 | 0.00 | 0.02 | 0.02 | 62 | 1005.3 |
| 20260506161138 | 57 | 135 | 2.0 | 7.0 | 0.00 | 0.02 | 0.02 | 62 | 1005.1 |
| 20260506160133 | 57 | 112 | 3.0 | 11.0 | 0.00 | 0.02 | 0.02 | 61 | 1005.3 |
| 20260506155126 | 57 | 112 | 4.0 | 13.0 | 0.00 | 0.02 | 0.02 | 61 | 1005.1 |
| 20260506154122 | 57 | 157 | 4.0 | 11.0 | 0.00 | 0.02 | 0.02 | 61 | 1005.6 |
| 20260506153113 | 57 | 112 | 2.0 | 11.0 | 0.00 | 0.02 | 0.02 | 61 | 1005.6 |
| 20260506152108 | 58 | 112 | 2.0 | 9.0 | 0.00 | 0.02 | 0.02 | 63 | 1005.8 |
| 20260506151101 | 58 | 112 | 4.0 | 11.0 | 0.00 | 0.02 | 0.02 | 63 | 1006.0 |
| 20260506150056 | 58 | 112 | 2.0 | 7.0 | 0.00 | 0.02 | 0.02 | 66 | 1006.4 |
| 20260506145052 | 58 | 90 | 3.0 | 8.0 | 0.00 | 0.02 | 0.02 | 66 | 1006.6 |
| 20260506144043 | 59 | 157 | 2.0 | 6.0 | 0.00 | 0.02 | 0.02 | 61 | 1007.3 |
| 20260506143037 | 60 | 180 | 2.0 | 6.0 | 0.00 | 0.02 | 0.02 | 59 | 1006.9 |
| 20260506142029 | 60 | 90 | 4.0 | 8.0 | 0.00 | 0.02 | 0.02 | 62 | 1006.8 |
| 20260506141024 | 61 | 112 | 4.0 | 11.0 | 0.00 | 0.02 | 0.02 | 61 | 1006.9 |
| 20260506140021 | 61 | 135 | 4.0 | 13.0 | 0.00 | 0.02 | 0.02 | 60 | 1007.1 |
| 20260506135011 | 62 | 67 | 6.0 | 15.0 | 0.00 | 0.02 | 0.02 | 58 | 1006.8 |
| 20260506134005 | 63 | 90 | 9.0 | 14.0 | 0.00 | 0.02 | 0.02 | 57 | 1006.6 |
| 20260506133000 | 64 | 112 | 2.0 | 9.0 | 0.00 | 0.02 | 0.02 | 54 | 1006.6 |
| 20260506131953 | 64 | 112 | 4.0 | 13.0 | 0.00 | 0.02 | 0.02 | 54 | 1007.0 |
| 20260506130951 | 64 | 202 | 5.0 | 9.0 | 0.00 | 0.02 | 0.02 | 53 | 1007.2 |
| 20260506125941 | 64 | 157 | 4.0 | 14.0 | 0.00 | 0.02 | 0.02 | 50 | 1007.3 |
| 20260506124935 | 63 | 157 | 4.0 | 13.0 | 0.00 | 0.02 | 0.02 | 53 | 1007.4 |
| 20260506123929 | 62 | 112 | 4.0 | 15.0 | 0.00 | 0.02 | 0.02 | 51 | 1007.2 |
| 20260506122922 | 62 | 90 | 3.0 | 14.0 | 0.00 | 0.02 | 0.02 | 51 | 1007.5 |
| 20260506121919 | 61 | 157 | 2.0 | 9.0 | 0.00 | 0.02 | 0.02 | 51 | 1007.7 |
| 20260506120910 | 62 | 90 | 3.0 | 14.0 | 0.00 | 0.02 | 0.02 | 49 | 1007.8 |
| 20260506115909 | 62 | 90 | 4.0 | 11.0 | 0.00 | 0.02 | 0.02 | 49 | 1007.9 |
| 20260506114857 | 62 | 90 | 4.0 | 11.0 | 0.00 | 0.02 | 0.02 | 48 | 1008.4 |
| 20260506113850 | 61 | 90 | 4.0 | 13.0 | 0.00 | 0.02 | 0.02 | 51 | 1007.9 |
| 20260506112849 | 62 | 135 | 4.0 | 13.0 | 0.00 | 0.02 | 0.02 | 49 | 1008.4 |
| 20260506111839 | 61 | 135 | 4.0 | 11.0 | 0.00 | 0.02 | 0.02 | 49 | 1008.2 |
| 20260506110832 | 62 | 45 | 4.0 | 17.0 | 0.00 | 0.02 | 0.02 | 51 | 1008.3 |
| 20260506105827 | 61 | 90 | 3.0 | 13.0 | 0.00 | 0.02 | 0.02 | 49 | 1008.5 |
| 20260506104820 | 62 | 112 | 4.0 | 11.0 | 0.00 | 0.02 | 0.02 | 49 | 1008.6 |
| 20260506103816 | 61 | 112 | 3.0 | 11.0 | 0.00 | 0.02 | 0.02 | 50 | 1008.6 |
| 20260506102808 | 61 | 90 | 4.0 | 14.0 | 0.00 | 0.02 | 0.02 | 50 | 1008.7 |
| 20260506101801 | 60 | 112 | 3.0 | 14.0 | 0.00 | 0.02 | 0.02 | 49 | 1008.9 |
| 20260506100755 | 60 | 135 | 6.0 | 11.0 | 0.00 | 0.02 | 0.02 | 52 | 1009.2 |
| 20260506095749 | 59 | 112 | 4.0 | 8.0 | 0.00 | 0.02 | 0.02 | 51 | 1009.2 |
| 20260506094746 | 60 | 112 | 4.0 | 11.0 | 0.00 | 0.02 | 0.02 | 52 | 1009.3 |
| 20260506093737 | 60 | 112 | 4.0 | 11.0 | 0.00 | 0.02 | 0.02 | 51 | 1009.4 |
| 20260506092731 | 59 | 90 | 4.0 | 13.0 | 0.00 | 0.02 | 0.02 | 50 | 1009.4 |
| 20260506091725 | 58 | 112 | 4.0 | 14.0 | 0.00 | 0.02 | 0.02 | 53 | 1009.4 |
| 20260506090718 | 58 | 67 | 2.0 | 9.0 | 0.00 | 0.02 | 0.02 | 54 | 1009.4 |
| 20260506085716 | 58 | 90 | 3.0 | 9.0 | 0.00 | 0.02 | 0.02 | 51 | 1009.3 |
| 20260506084706 | 57 | 90 | 4.0 | 11.0 | 0.00 | 0.02 | 0.02 | 53 | 1009.5 |
| 20260506083659 | 57 | 90 | 3.0 | 8.0 | 0.00 | 0.02 | 0.02 | 50 | 1009.5 |
| 20260506082653 | 57 | 112 | 4.0 | 11.0 | 0.00 | 0.02 | 0.02 | 48 | 1009.6 |
| 20260506081647 | 57 | 135 | 4.0 | 9.0 | 0.00 | 0.02 | 0.02 | 49 | 1009.6 |
| 20260506080644 | 56 | 112 | 4.0 | 13.0 | 0.00 | 0.02 | 0.02 | 49 | 1009.6 |
| 20260506072617 | 53 | 135 | 4.0 | 11.0 | 0.00 | 0.02 | 0.02 | 50 | 1010.1 |
| 20260506071613 | 53 | 112 | 3.0 | 8.0 | 0.00 | 0.02 | 0.02 | 55 | 1010.1 |
| 20260506070604 | 51 | 135 | 2.0 | 7.0 | 0.00 | 0.02 | 0.02 | 56 | 1010.1 |
| 20260506061532 | 49 | 112 | 2.0 | 4.0 | 0.00 | 0.02 | 0.02 | 62 | 1010.4 |